This is the latest recevied weather packets stored in our database for station/object K7CTM. If no packets are shown the sender has not sent any weather packets the latest 10 day(s).
| Time | Temp. | Humidity | Pressure | Rain* | Wind** | Luminosity | Snow |
|---|---|---|---|---|---|---|---|
| 1787794511 | 28.33° C | 31% | 1029.6 hPa | 0 mm | - | 8 W/m² | - |
| 1787794206 | 28.89° C | 31% | 1029.5 hPa | 0 mm | - | 16 W/m² | - |
| 1787793906 | 28.89° C | 30% | 1029.4 hPa | 0 mm | - | 26 W/m² | - |
| 1787793603 | 28.89° C | 30% | 1029.5 hPa | 0 mm | - | 26 W/m² | - |
| 1787793297 | 28.89° C | 30% | 1029.4 hPa | 0 mm | - | 21 W/m² | - |
| 1787792992 | 28.89° C | 29% | 1029.4 hPa | 0 mm | - | 20 W/m² | - |
| 1787792687 | 29.44° C | 29% | 1029.2 hPa | 0 mm | - | 24 W/m² | - |
| 1787792385 | 29.44° C | 28% | 1029.4 hPa | 0 mm | - | 32 W/m² | - |
| 1787792084 | 29.44° C | 28% | 1029.1 hPa | 0 mm | - | 41 W/m² | - |
| 1787791782 | 30° C | 28% | 1029.1 hPa | 0 mm | - | 51 W/m² | - |
| 1787791478 | 30° C | 28% | 1028.9 hPa | 0 mm | - | 61 W/m² | - |
| 1787791173 | 30° C | 28% | 1028.9 hPa | 0 mm | - | 67 W/m² | - |
| 1787790868 | 30° C | 27% | 1028.7 hPa | 0 mm | - | 69 W/m² | - |
| 1787790564 | 30.56° C | 27% | 1028.8 hPa | 0 mm | - | 69 W/m² | - |
| 1787790259 | 30.56° C | 25% | 1028.9 hPa | 0 mm | - | 81 W/m² | - |
| 1787789954 | 30.56° C | 25% | 1028.8 hPa | 0 mm | - | 105 W/m² | - |
| 1787789654 | 31.11° C | 25% | 1028.9 hPa | 0 mm | - | 128 W/m² | - |
| 1787789354 | 31.11° C | 25% | 1028.9 hPa | 0 mm | - | 141 W/m² | - |
| 1787789049 | 31.11° C | 25% | 1028.6 hPa | 0 mm | - | 131 W/m² | - |
| 1787788746 | 31.11° C | 25% | 1028.7 hPa | 0 mm | - | 147 W/m² | - |
| 1787788442 | 31.67° C | 25% | 1028.7 hPa | 0 mm | - | 170 W/m² | - |
| 1787788142 | 31.67° C | 25% | 1028.8 hPa | 0 mm | - | 191 W/m² | - |
| 1787787836 | 31.11° C | 25% | 1028.8 hPa | 0 mm | - | 229 W/m² | - |
| 1787787535 | 31.11° C | 25% | 1028.7 hPa | 0 mm | - | 237 W/m² | - |
| 1787787230 | 31.67° C | 25% | 1028.7 hPa | 0 mm | - | 202 W/m² | - |
* Rain latest hour (hover to see other rain measurements)
** Current wind speed in m/s (hover to see current wind gust speed)